Location: Nürtingen
(48.6192°N, 9.3452°E)
Time: 11:19:55
(UTC+00:00)

Daily predictions for brighter satellites

Satellite Brightness Start Highest point End
(mag) Time Altitude Azimuth Time Altitude Azimuth Time Altitude Azimuth
NOSS 2-1 (D) 3.5 18:06:25 10° NW 18:10:06 77° NE 18:15:10 10° SE
BREEZE-M DEB (TANK) 3.1 18:07:53 10° W 18:10:19 79° N 18:15:07 10° E
Cosmos 1725 Rocket 4.3 18:04:29 10° SSW 18:10:38 74° W 18:16:51 10° N
Meteor 1-18 Rocket 4.4 18:05:01 10° N 18:11:00 86° E 18:16:50 10° SSE
SJ-6B 2.8 18:08:02 10° SSE 18:11:31 48° ENE 18:15:01 10° N
Cosmos 2333 Rocket 3.5 18:08:15 10° SW 18:13:47 47° NW 18:19:22 10° NNE
SeaSat 1 3.0 18:08:59 10° NNE 18:13:52 63° NW 18:18:42 10° SW
Iridium 4 Rocket 3.0 18:10:05 10° N 18:14:13 60° E 18:18:20 10° SSE
Meteor 1-4 Rocket 2.6 18:12:07 10° N 18:14:34 31° ENE 18:17:00 10° SE
CARTOSAT-1 4.5 18:10:59 10° SE 18:14:39 29° ENE 18:18:20 10° N
SL-16 R/B 4.5 18:10:09 10° WSW 18:14:52 26° NW 18:19:37 10° NNE
Cosmos 1151 Rocket 3.6 18:10:48 10° NNW 18:15:02 62° W 18:19:12 10° S
Cosmos 1340 2.5 18:12:15 10° SSW 18:15:30 76° WNW 18:18:46 10° N
ATLAS CENTAUR R/B 2.8 18:13:58 10° SE 18:15:31 12° ESE 18:17:07 10° E
Cosmos 2369 Rocket 4.2 18:15:54 10° N 18:18:48 14° NNE 18:21:41 10° ENE
Cosmos 1980 4.5 18:16:16 10° SSE 18:21:02 29° ESE 18:25:51 10° NE
ARGOS Delta rocket 4.1 18:16:34 10° SSE 18:21:27 52° ENE 18:26:04 10° N
Cosmos 1733 4.3 18:22:19 10° SE 18:24:49 19° E 18:27:19 10° NE
Cosmos 841 Rocket 4.5 18:20:54 10° SW 18:25:56 52° WNW 18:31:00 10° NNE
NOSS 0 Rocket 4.2 18:21:14 10° S 18:27:05 45° ESE 18:32:59 10° NE
Cosmos 1943 Rocket 2.6 18:22:08 10° NNW 18:27:23 43° NE 18:32:34 10° SE
USA 276 1.7 18:25:18 10° WNW 18:28:12 82° SSW 18:30:24 15° ESE
ACS3 Solar Sail 2.6 18:25:09 10° SE 18:30:48 34° ENE 18:36:27 10° N
Cosmos 1400 Rocket 2.8 18:27:28 10° NNW 18:31:19 78° WSW 18:35:04 10° S
Cosmos 2322 3.7 18:26:39 10° SSW 18:32:19 88° ESE 18:38:00 10° NNE
Cosmos 2233 Rocket 4.3 18:27:18 10° SSW 18:33:25 73° W 18:39:37 10° N
Cosmos 1066 Rocket 4.4 18:27:56 10° NNW 18:33:51 83° W 18:39:39 10° S
BlueWalker 3 2.9 18:30:44 10° WNW 18:34:16 40° SW 18:37:47 10° SSE
Cosmos 1726 2.5 18:33:22 10° SSW 18:36:03 48° WNW 18:38:47 10° N
Resurs 1-3 3.8 18:32:08 10° S 18:36:26 74° WSW 18:40:47 10° NNW
Terra 3.9 18:35:44 10° ENE 18:37:04 11° NE 18:38:24 10° NE
Cosmos 1513 Rocket 4.5 18:35:36 10° S 18:41:30 58° E 18:47:28 10° NNE
Cosmos 1315 Rocket 3.7 18:43:33 10° N 18:47:06 30° ENE 18:49:14 18° ESE
Meteor PRIRODA 4.0 18:45:58 10° S 18:49:12 57° WSW 18:52:29 10° NNW
Cosmos 1464 Rocket 4.2 18:43:20 10° SSE 18:49:24 52° E 18:55:33 10° NNE
Cosmos 1125 Rocket 3.6 18:46:00 10° NNW 18:51:09 57° ENE 18:55:24 15° SE
SL-16 R/B 3.8 18:53:32 14° E 18:53:32 14° E 18:55:19 10° ENE
Cosmos 1842 3.1 18:48:39 10° N 18:52:17 83° WSW 18:55:53 10° S
Cosmos 1536 2.8 18:50:27 10° S 18:54:09 52° E 18:57:54 10° NNE
USA 59 Rocket 0.9 18:50:33 10° NW 18:54:20 50° SW 18:59:33 10° SSE
Okean 3 Rocket 3.6 18:50:13 10° S 18:54:37 59° E 18:59:00 10° NNE
Cosmos 1707 2.4 18:52:33 10° N 18:56:06 89° E 18:59:39 10° S
COSMOS 2428 2.9 18:50:26 10° SSW 18:56:09 77° WNW 19:01:55 10° NNE
Cosmos 1515 Rocket 3.5 18:52:03 10° N 18:56:22 66° ENE 19:00:42 10° SSE
Okean O Rocket 1.9 18:57:42 18° SE 19:00:44 47° ENE 19:05:00 10° N
Feng Yun 1-1 Rocket 4.3 18:55:57 10° SSE 19:01:44 75° ENE 19:07:38 10° NNW
SL-14 R/B 4.3 19:01:38 10° NNE 19:04:51 26° ENE 19:05:27 25° E
Cosmos 2278 Rocket 2.4 19:01:30 10° NNW 19:07:10 73° WSW 19:12:39 11° SSE
USA 306 3.0 19:05:36 10° W 19:08:44 52° NNW 19:11:32 15° NE
Meteor 1-13 Rocket 4.2 19:03:47 10° N 19:09:41 72° ENE 19:14:59 12° SSE
CZ-4 R/B 2.1 19:06:02 10° S 19:09:45 51° W 19:13:34 10° NNW
Meteor 2-9 Rocket 4.2 19:05:28 10° SSE 19:10:35 50° E 19:15:51 10° NNE
PSLV R/B 4.2 19:09:57 31° ESE 19:10:48 37° ENE 19:14:04 10° N
Cosmos 2034 Rocket 4.1 19:05:43 10° SSE 19:11:39 51° E 19:17:36 10° NNE
CZ-4B R/B 3.2 19:07:39 10° SSE 19:13:07 86° WSW 19:18:32 10° NNW
Cosmos 1500 Rocket 3.9 19:10:44 19° SSE 19:13:26 41° E 19:17:32 10° NNE
Cosmos 1072 Rocket 4.5 19:08:48 10° S 19:15:13 84° E 19:21:38 10° N
Resurs 01 Rocket 1.8 19:10:50 10° S 19:15:15 73° WSW 19:19:42 10° NNW
NOSS 3-3 (C) 4.1 19:11:19 10° S 19:16:17 40° ESE 19:22:00 10° NE
Helios 1A 3.8 19:12:25 10° N 19:16:23 52° WNW 19:20:19 10° SSW
USA 290 3.9 19:14:24 10° NW 19:17:24 33° WSW 19:20:16 11° S
Meteor 2-10 4.1 19:11:53 10° S 19:17:26 72° E 19:23:09 10° NNE
Cosmos 2228 Rocket 4.4 19:13:53 10° NNE 19:17:31 23° ENE 19:17:55 22° ENE
GEOS 3 Rocket 4.2 19:13:39 14° SSE 19:18:03 55° SW 19:23:10 10° NW
Meteor 1-23 Rocket 4.4 19:13:02 10° N 19:18:33 53° ENE 19:21:41 25° SE
Cosmos 1743 Rocket 4.0 19:19:19 33° ESE 19:20:10 36° E 19:24:09 10° NNE
USA 186 2.7 19:17:45 12° S 19:20:36 47° W 19:23:46 10° NNW
MOS 1-B 4.3 19:17:39 13° SSE 19:22:59 89° ENE 19:28:49 10° NNW
SPOT 5 3.1 19:22:14 32° ESE 19:23:45 44° ENE 19:28:01 10° N
Okean-O 2.9 19:23:04 34° ESE 19:24:32 48° ENE 19:28:47 10° N
USA 267 4.1 19:21:02 14° ENE 19:26:24 45° N 19:32:32 10° WNW
Cosmos 2208 Rocket 4.0 19:21:28 10° S 19:26:36 57° ESE 19:31:50 10° NNE
Cosmos 1408 Rocket 3.4 19:24:00 10° S 19:28:21 77° E 19:32:47 10° NNE
NOSS 3-3 (A) 3.8 19:25:10 10° SSW 19:30:22 53° ESE 19:36:25 10° NE
ISS -3.9 19:27:05 10° WSW 19:30:26 73° SSE 19:30:43 67° ESE
MOS 1 4.3 19:31:48 28° SE 19:34:49 67° ENE 19:40:28 10° N
Cosmos 2237 Rocket 2.1 19:29:29 10° SSW 19:35:07 88° WNW 19:40:48 10° NNE
CSL-04 Rocket 4.0 19:31:44 10° S 19:36:59 62° WSW 19:42:15 10° NNW
Aureole 3 Rocket 3.7 19:30:40 10° S 19:37:29 69° E 19:42:20 10° NNE
Cosmos 1607 4.4 19:32:18 10° S 19:38:10 38° ESE 19:44:02 10° NE
Cosmos 2297 4.2 19:40:16 10° NNW 19:45:39 43° NE 19:47:04 37° E
Meteor 1-11 Rocket 3.8 19:40:56 10° SSW 19:46:32 74° WNW 19:52:06 10° N
MOS 1 Rocket 3.6 19:45:39 44° SE 19:47:01 60° ENE 19:52:14 10° N
Spot 2 Rocket 4.0 19:50:58 38° ENE 19:51:22 38° ENE 19:56:01 10° N
Cosmos 158 Rocket 3.9 19:47:06 10° SSW 19:51:58 77° WNW 19:56:52 10° NNE
ATLAS CENTAUR R/B 1.2 19:48:45 10° SW 19:52:18 71° NW 19:54:53 19° NNE
NOSS 3-4 (A) 4.0 19:47:42 10° NW 19:54:14 57° NE 19:57:11 36° E
NOSS 3-4 (C) 4.1 19:47:48 10° NW 19:54:20 56° NE 19:57:17 36° E
Cosmos 1805 Rocket 3.4 19:52:47 36° S 19:54:30 87° W 19:58:52 10° N
SL-24 R/B 4.3 20:01:55 48° S 20:03:17 89° WSW 20:08:08 10° N
Cosmos 2369 Rocket 2.5 19:58:45 10° NNW 20:04:19 48° NE 20:05:11 45° E
Cosmos 1980 4.4 19:59:16 10° SW 20:04:48 53° NW 20:10:24 10° NNE
Cosmos 1862 Rocket 4.1 20:02:53 10° N 20:06:32 46° NE 20:06:32 46° NE
Meteor 1-21 4.2 20:02:56 10° NNW 20:08:44 88° E 20:10:23 49° SSE
Sich 1 3.5 20:07:33 27° SW 20:09:44 57° WNW 20:14:00 10° N
Cosmos 1943 Rocket 3.4 20:06:04 10° NW 20:11:02 35° WSW 20:14:05 20° SSW
Cosmos 1707 Rocket 3.8 20:07:12 10° N 20:11:05 58° NE 20:11:05 58° NE
DELTA 2 DEB (DPAF) 3.9 20:07:44 10° NNE 20:11:47 82° NNW 20:11:47 82° NNW
Terra 1.7 20:13:53 68° ENE 20:13:53 68° ENE 20:18:28 10° N
ERS-1 Rocket 2.8 20:14:03 72° SE 20:14:31 81° ENE 20:19:35 10° NNW
ACS3 Solar Sail 2.6 20:09:36 16° SSW 20:14:36 52° W 20:20:51 10° NNW
Cosmos 2298 Rocket 4.4 20:09:44 10° NNW 20:14:56 58° WSW 20:16:27 42° SSW
Cosmos 2150 Rocket 4.4 20:11:35 10° NNW 20:16:38 55° WSW 20:17:56 43° SSW
Cosmos 1975 3.5 20:18:58 47° N 20:18:58 47° N 20:21:52 10° N
Cosmos 1805 4.4 20:21:37 35° W 20:22:05 37° WNW 20:25:31 10° N
Cosmos 2026 Rocket 4.2 20:17:00 10° NNW 20:23:11 64° W 20:25:51 34° SSW
Cosmos 1092 Rocket 4.3 20:17:23 10° NNW 20:23:41 66° W 20:26:28 34° SSW
Ariane Rocket 3.1 20:24:21 59° NE 20:24:21 59° NE 20:29:04 10° N
Cosmos 2266 Rocket 4.5 20:19:09 10° N 20:25:07 43° ENE 20:25:07 43° ENE
IRS-1A Rocket 4.4 20:26:28 54° S 20:27:47 74° WSW 20:33:30 10° NNW
Okean 3 4.3 20:29:49 10° N 20:32:44 44° N 20:32:44 44° N
SL-16 R/B 2.0 20:35:17 82° S 20:35:31 86° ESE 20:41:14 10° NNE
Okean O Rocket 3.8 20:35:02 15° SW 20:37:13 21° W 20:40:37 10° NW
Cosmos 1634 Rocket 4.2 20:36:32 35° SSW 20:39:18 71° W 20:45:40 10° N
Cosmos 1656 Rocket 3.6 20:35:30 10° NNW 20:41:09 73° WSW 20:41:19 72° SW
IRS-1C Rocket 4.4 20:45:02 55° WSW 20:45:27 57° W 20:50:40 10° NNW
Okean 1-7 4.4 20:46:10 10° N 20:48:39 33° N 20:48:39 33° N
Cosmos 2263 4.3 20:46:37 10° NNW 20:51:55 73° NNE 20:51:55 73° NNE
Cosmos 2228 Rocket 4.2 20:51:31 10° NNW 20:55:20 42° WNW 20:55:20 42° WNW
SPOT 3 Rocket 3.9 21:00:55 61° NW 21:00:55 61° NW 21:05:20 10° NNW
Cosmos 2142 Rocket 4.4 21:02:36 82° WNW 21:02:36 82° WNW 21:08:45 10° N
USA 267 3.3 21:08:22 67° ENE 21:08:55 70° NNE 21:15:25 10° NW
Cosmos 1655 Rocket 4.3 21:05:08 10° N 21:10:37 57° NE 21:10:37 57° NE
ATLAS CENTAUR R/B 4.2 21:28:12 10° WNW 21:35:08 - NNE 21:29:51 15° NW
NOSS 3-4 (A) 4.5 21:38:37 10° NW 21:44:37 45° WSW 21:44:37 45° WSW
NOSS 3-4 (C) 4.5 21:38:44 10° NW 21:44:43 45° WSW 21:44:43 45° WSW
Cosmos 2369 Rocket 3.7 21:43:07 10° NW 21:46:58 30° W 21:46:58 30° W
Terra 4.2 21:52:34 16° WNW 21:52:34 16° WNW 21:54:45 10° NW
Cosmos 1980 Rocket 4.4 22:06:37 10° N 22:09:57 16° NE 22:10:31 15° NE
SL-16 R/B 4.3 22:17:00 14° W 22:20:23 22° NW 22:24:46 10° N
ATLAS 2AS CENTAUR R/B 3.5 22:30:27 10° NW 22:36:31 44° NNE 22:36:31 44° NNE
Cosmos 1697 Rocket 4.3 22:49:21 10° NNW 22:52:29 30° N 22:52:29 30° N
Cosmos 2344 4.2 23:20:29 10° NW 23:27:14 61° WNW 23:27:14 61° WNW
